DELTA 1 DEB, 14510

Orbit data source: Space-Track

DELTA 1 DEB, 14510 is space debris in LEO originally from a launch on Thu, 29 Jul 1976 UTC launched from the Air Force Western Test Range (AFWTR). Debris objects in space refer to the collection of defunct objects orbiting the Earth. Examples of debris include non-operational satellites, rocket bodies, and fragments generated from explosions, collisions, or faulty payload assembly.

Loading next visibility...
Identifier
14510, 1976-077ER
Orbit
LEO
Country
Flag of USUS
Related business
Manufacturer
Unknown
Mission
Spacecraft
Bus & Motor
Unknown
Mass
Unknown
Launch date (UTC)
1976-07-29 (50 years ago)
Launch vehicle
Unknown
Launch site
Air Force Western Test Range (AFWTR)
Object type
Payload
Rocket body
Debris
Shape & HBR
Unknown shape, 0.1 m
Radar Cross Section
Small (<0.1 m²)

Expand to show TLE details & history
Last TLE update: 15 hours ago

TLE from 15 hours ago
0 DELTA 1 DEB
1 14510U 76077ER  26118.74035685 -.00000025  00000-0  20205-3 0  9994
2 14510 102.4389  48.7819 0221913 296.2745  88.9260 11.99471153921826
Epoch: 2026-04-28T17:46Z
TLE epoch observation values (Epoch: 2026-04-28T17:46:06.831Z)
Latitude
27.07496°
Longitude
-80.90079°
Altitude
1,686.777 km
Speed
7.033 km/s
True Right ascension
02h 49m 21s
True Declination
26° 57' 07"
Sunlit
Object was in daylight at epoch
Visualization orbit readout
Latitude
Unknown
Longitude
Unknown
Altitude
Unknown
Speed
Unknown
Apparent Right ascension
Unknown
Apparent Declination
Unknown
Sunlit
N/A
Visualization observer readout
Local Sidereal Time
16:42:27
Azimuth
Unknown
Elevation
Unknown
Doppler factor
Unknown
Orbital elements
Apogee altitude
1,859.721 km
Perigee altitude
1,502.041 km
Semi-major axis
8,059.018 km
Eccentricity
0.02219
Inclination
102.4389°
RAAN
48.7819°
Arg. of periapsis
296.2745°
True anomaly
91.46898°
Mean anomaly
88.926°
Eccentric anomaly
90.19746°
Mean motion
2.99999 °/min
Orbital period
120 mins
BSTAR
0.00020205
Loading maneuver chart data...
Computing Atmospheric mass density...
Loading historical data...
Loading historical data...
Loading historical data...
Loading historical data...
Loading historical data...
Loading historical data...
Loading historical data...

Documentation

Showing up to 5 results
|